Time,TemperatureF,DewpointF,PressureIn,WindDirection,WindDirectionDegrees,WindSpeedMPH,WindSpeedGustMPH,Humidity,HourlyPrecipIn,Conditions,Clouds,dailyrainin,SoftwareType,DateUTC
2013-05-25 00:01:00,45.7,35.7,29.91,WNW,287,5.4,5.4,68,0.00,,---,0.00,VWS V14.01,2013-05-25 04:01:00,
2013-05-25 00:06:00,45.7,35.7,29.91,SSW,202,2.7,2.7,68,0.00,,---,0.00,VWS V14.01,2013-05-25 04:06:00,
2013-05-25 00:11:00,45.7,36.1,29.91,West,268,8.1,8.1,69,0.04,,---,0.04,VWS V14.01,2013-05-25 04:11:00,
2013-05-25 00:16:00,45.5,35.9,29.91,West,263,11.0,11.0,69,0.04,,---,0.04,VWS V14.01,2013-05-25 04:16:00,
2013-05-25 00:21:00,45.5,35.9,29.91,WSW,250,5.8,5.8,69,0.04,,---,0.04,VWS V14.01,2013-05-25 04:21:00,
2013-05-25 00:26:00,45.5,35.9,29.91,SW,216,5.4,5.4,69,0.04,,---,0.04,VWS V14.01,2013-05-25 04:26:00,
2013-05-25 00:31:00,45.5,36.3,29.91,West,275,9.2,9.2,70,0.04,,---,0.04,VWS V14.01,2013-05-25 04:31:00,
2013-05-25 00:36:00,45.3,36.1,29.91,WNW,283,2.7,2.7,70,0.04,,---,0.04,VWS V14.01,2013-05-25 04:36:00,
2013-05-25 00:41:00,45.3,36.1,29.91,West,279,2.7,2.7,70,0.04,,---,0.04,VWS V14.01,2013-05-25 04:41:00,
2013-05-25 00:46:00,45.3,36.1,29.88,West,274,10.1,10.1,70,0.04,,---,0.04,VWS V14.01,2013-05-25 04:46:00,
2013-05-25 00:51:00,45.3,36.1,29.88,NW,306,3.1,3.1,70,0.04,,---,0.04,VWS V14.01,2013-05-25 04:51:00,
2013-05-25 00:57:00,45.3,36.1,29.88,WNW,283,5.4,5.4,70,0.04,,---,0.04,VWS V14.01,2013-05-25 04:57:00,
2013-05-25 01:02:00,45.1,36.3,29.88,WSW,250,5.4,5.4,71,0.04,,---,0.04,VWS V14.01,2013-05-25 05:02:00,
2013-05-25 01:07:00,45.1,36.3,29.88,West,272,5.8,5.8,71,0.04,,---,0.04,VWS V14.01,2013-05-25 05:07:00,
2013-05-25 01:12:00,45.1,36.3,29.88,NW,308,3.6,3.6,71,0.04,,---,0.04,VWS V14.01,2013-05-25 05:12:00,
2013-05-25 01:17:00,45.1,36.3,29.88,WSW,255,8.3,8.3,71,0.00,,---,0.04,VWS V14.01,2013-05-25 05:17:00,
2013-05-25 01:22:00,45.1,36.3,29.88,WNW,291,5.8,5.8,71,0.00,,---,0.04,VWS V14.01,2013-05-25 05:22:00,
2013-05-25 01:27:00,45.1,36.3,29.88,WNW,293,4.0,4.0,71,0.00,,---,0.04,VWS V14.01,2013-05-25 05:27:00,
2013-05-25 01:32:00,45.1,36.3,29.88,West,267,6.3,6.3,71,0.00,,---,0.04,VWS V14.01,2013-05-25 05:32:00,
2013-05-25 01:37:00,45.1,36.7,29.88,West,275,10.5,10.5,72,0.00,,---,0.04,VWS V14.01,2013-05-25 05:37:00,
2013-05-25 01:42:00,45.1,36.7,29.88,SW,233,4.0,4.0,72,0.00,,---,0.04,VWS V14.01,2013-05-25 05:42:00,
2013-05-25 01:47:00,45.1,36.7,29.88,WNW,288,2.7,2.7,72,0.00,,---,0.04,VWS V14.01,2013-05-25 05:47:00,
2013-05-25 01:52:00,45.1,36.7,29.88,WSW,257,7.6,7.6,72,0.00,,---,0.04,VWS V14.01,2013-05-25 05:52:00,
2013-05-25 01:57:00,45.1,36.7,29.88,West,281,7.6,7.6,72,0.00,,---,0.04,VWS V14.01,2013-05-25 05:57:00,
2013-05-25 02:02:00,45.1,36.7,29.88,West,272,2.7,2.7,72,0.00,,---,0.04,VWS V14.01,2013-05-25 06:02:00,
2013-05-25 02:07:00,45.0,36.5,29.88,WSW,251,3.6,3.6,72,0.00,,---,0.04,VWS V14.01,2013-05-25 06:07:00,
2013-05-25 02:12:00,45.0,36.5,29.88,WSW,249,10.1,10.1,72,0.00,,---,0.04,VWS V14.01,2013-05-25 06:12:00,
2013-05-25 02:17:00,45.0,36.5,29.88,WSW,247,8.1,8.1,72,0.00,,---,0.04,VWS V14.01,2013-05-25 06:17:00,
2013-05-25 02:22:00,44.8,36.3,29.88,West,274,2.7,2.7,72,0.00,,---,0.04,VWS V14.01,2013-05-25 06:22:00,
2013-05-25 02:27:00,44.8,36.3,29.88,NW,316,8.3,8.3,72,0.00,,---,0.04,VWS V14.01,2013-05-25 06:27:00,
2013-05-25 02:32:00,44.8,36.3,29.88,WNW,298,7.6,7.6,72,0.00,,---,0.04,VWS V14.01,2013-05-25 06:32:00,
2013-05-25 02:37:00,44.8,36.3,29.88,SW,232,8.7,8.7,72,0.00,,---,0.04,VWS V14.01,2013-05-25 06:37:00,
2013-05-25 02:42:00,44.8,36.3,29.88,WSW,256,5.8,5.8,72,0.00,,---,0.04,VWS V14.01,2013-05-25 06:42:00,
2013-05-25 02:47:00,44.8,36.3,29.88,NW,319,0.0,0.0,72,0.00,,---,0.04,VWS V14.01,2013-05-25 06:47:00,
2013-05-25 02:52:00,44.8,36.3,29.88,West,277,4.0,4.0,72,0.00,,---,0.04,VWS V14.01,2013-05-25 06:52:00,
2013-05-25 02:57:00,44.8,36.3,29.88,WNW,293,5.4,5.4,72,0.00,,---,0.04,VWS V14.01,2013-05-25 06:57:00,
2013-05-25 03:03:00,44.8,36.3,29.88,WNW,299,3.6,3.6,72,0.00,,---,0.04,VWS V14.01,2013-05-25 07:03:00,
2013-05-25 03:08:00,44.8,36.3,29.88,West,264,5.8,5.8,72,0.00,,---,0.04,VWS V14.01,2013-05-25 07:08:00,
2013-05-25 03:13:00,44.6,36.2,29.88,West,262,4.5,4.5,72,0.00,,---,0.04,VWS V14.01,2013-05-25 07:13:00,
2013-05-25 03:18:00,44.6,36.2,29.88,WNW,283,3.1,3.1,72,0.00,,---,0.04,VWS V14.01,2013-05-25 07:18:00,
2013-05-25 03:23:00,44.6,36.2,29.88,West,278,8.7,8.7,72,0.00,,---,0.04,VWS V14.01,2013-05-25 07:23:00,
2013-05-25 03:28:00,44.8,36.3,29.88,NW,313,0.0,0.0,72,0.00,,---,0.04,VWS V14.01,2013-05-25 07:28:00,
2013-05-25 03:33:00,44.6,36.2,29.88,NW,307,2.7,2.7,72,0.00,,---,0.04,VWS V14.01,2013-05-25 07:33:00,
2013-05-25 03:38:00,44.6,36.2,29.88,SSE,155,5.8,5.8,72,0.00,,---,0.04,VWS V14.01,2013-05-25 07:38:00,
2013-05-25 03:43:00,44.6,36.2,29.88,WNW,282,11.0,11.0,72,0.00,,---,0.04,VWS V14.01,2013-05-25 07:43:00,
2013-05-25 03:48:00,44.6,36.2,29.88,WNW,283,2.7,2.7,72,0.00,,---,0.04,VWS V14.01,2013-05-25 07:48:00,
2013-05-25 03:53:00,44.6,36.2,29.88,SSW,204,5.4,5.4,72,0.00,,---,0.04,VWS V14.01,2013-05-25 07:53:00,
2013-05-25 03:58:00,44.6,35.8,29.88,WSW,253,8.7,8.7,71,0.00,,---,0.04,VWS V14.01,2013-05-25 07:58:00,
2013-05-25 04:03:00,44.8,36.0,29.88,WSW,247,9.6,9.6,71,0.00,,---,0.04,VWS V14.01,2013-05-25 08:03:00,
2013-05-25 04:08:00,44.8,36.0,29.85,WSW,247,9.6,9.6,71,0.00,,---,0.04,VWS V14.01,2013-05-25 08:08:00,
2013-05-25 04:13:00,44.8,36.0,29.85,West,278,13.6,13.6,71,0.00,,---,0.04,VWS V14.01,2013-05-25 08:13:00,
2013-05-25 04:18:00,44.8,36.0,29.85,NW,307,8.7,8.7,71,0.00,,---,0.04,VWS V14.01,2013-05-25 08:18:00,
2013-05-25 04:23:00,44.8,36.0,29.85,North,353,3.6,3.6,71,0.00,,---,0.04,VWS V14.01,2013-05-25 08:23:00,
2013-05-25 04:28:00,44.8,35.6,29.85,NW,318,5.8,5.8,70,0.00,,---,0.04,VWS V14.01,2013-05-25 08:28:00,
2013-05-25 04:33:00,44.8,35.6,29.85,WNW,292,5.8,5.8,70,0.00,,---,0.04,VWS V14.01,2013-05-25 08:33:00,
2013-05-25 04:38:00,45.0,35.4,29.88,NW,311,5.8,5.8,69,0.00,,---,0.04,VWS V14.01,2013-05-25 08:38:00,
2013-05-25 04:43:00,45.0,35.4,29.88,West,272,4.9,4.9,69,0.00,,---,0.04,VWS V14.01,2013-05-25 08:43:00,
2013-05-25 04:48:00,44.8,35.2,29.88,West,276,5.8,5.8,69,0.00,,---,0.04,VWS V14.01,2013-05-25 08:48:00,
2013-05-25 04:53:00,44.8,35.2,29.88,West,269,3.1,3.1,69,0.04,,---,0.08,VWS V14.01,2013-05-25 08:53:00,
2013-05-25 04:59:00,44.8,35.2,29.88,SW,222,10.1,10.1,69,0.04,,---,0.08,VWS V14.01,2013-05-25 08:59:00,
2013-05-25 05:04:00,44.6,34.7,29.88,SSW,192,9.6,9.6,68,0.04,,---,0.08,VWS V14.01,2013-05-25 09:04:00,
2013-05-25 05:09:00,44.6,35.1,29.88,WNW,291,8.3,8.3,69,0.04,,---,0.08,VWS V14.01,2013-05-25 09:09:00,
2013-05-25 05:14:00,44.6,35.1,29.88,WNW,291,8.3,8.3,69,0.04,,---,0.08,VWS V14.01,2013-05-25 09:14:00,
2013-05-25 05:19:00,44.6,35.1,29.88,North,6,5.8,5.8,69,0.04,,---,0.08,VWS V14.01,2013-05-25 09:19:00,
2013-05-25 05:24:00,44.6,35.1,29.88,WSW,254,11.0,11.0,69,0.04,,---,0.08,VWS V14.01,2013-05-25 09:24:00,
2013-05-25 05:29:00,44.6,35.1,29.88,NW,315,5.4,5.4,69,0.04,,---,0.08,VWS V14.01,2013-05-25 09:29:00,
2013-05-25 05:34:00,44.8,35.6,29.88,West,262,5.8,5.8,70,0.04,,---,0.08,VWS V14.01,2013-05-25 09:34:00,
2013-05-25 05:39:00,44.8,35.6,29.88,WNW,297,8.3,8.3,70,0.04,,---,0.08,VWS V14.01,2013-05-25 09:39:00,
2013-05-25 05:44:00,44.8,35.6,29.88,WNW,290,4.9,4.9,70,0.04,,---,0.08,VWS V14.01,2013-05-25 09:44:00,
2013-05-25 05:49:00,44.8,35.6,29.88,West,267,5.4,5.4,70,0.08,,---,0.12,VWS V14.01,2013-05-25 09:49:00,
2013-05-25 05:54:00,44.8,36.0,29.88,West,271,3.6,3.6,71,0.08,,---,0.12,VWS V14.01,2013-05-25 09:54:00,
2013-05-25 05:59:00,45.0,36.1,29.88,West,271,3.6,3.6,71,0.08,,---,0.12,VWS V14.01,2013-05-25 09:59:00,
2013-05-25 06:04:00,45.1,36.3,29.88,West,280,5.8,5.8,71,0.04,,---,0.12,VWS V14.01,2013-05-25 10:04:00,
2013-05-25 06:09:00,45.1,36.3,29.88,West,262,5.8,5.8,71,0.04,,---,0.12,VWS V14.01,2013-05-25 10:09:00,
2013-05-25 06:14:00,45.3,36.8,29.88,West,278,10.5,10.5,72,0.04,,---,0.12,VWS V14.01,2013-05-25 10:14:00,
2013-05-25 06:19:00,45.3,36.8,29.88,WSW,242,6.3,6.3,72,0.04,,---,0.12,VWS V14.01,2013-05-25 10:19:00,
2013-05-25 06:24:00,45.3,36.8,29.88,NW,308,4.0,4.0,72,0.04,,---,0.12,VWS V14.01,2013-05-25 10:24:00,
2013-05-25 06:29:00,45.5,37.0,29.88,NW,310,4.9,4.9,72,0.04,,---,0.12,VWS V14.01,2013-05-25 10:29:00,
2013-05-25 06:34:00,45.5,37.0,29.88,WNW,291,3.1,3.1,72,0.04,,---,0.12,VWS V14.01,2013-05-25 10:34:00,
2013-05-25 06:39:00,45.7,37.2,29.88,WNW,291,3.1,3.1,72,0.04,,---,0.12,VWS V14.01,2013-05-25 10:39:00,
2013-05-25 06:44:00,45.9,37.4,29.88,SSW,211,5.8,5.8,72,0.04,,---,0.12,VWS V14.01,2013-05-25 10:44:00,
2013-05-25 06:50:00,46.0,37.9,29.88,WSW,243,3.1,3.1,73,0.04,,---,0.00,VWS V14.01,2013-05-25 10:50:00,
2013-05-25 06:55:00,46.2,38.1,29.88,West,272,3.1,3.1,73,0.04,,---,0.12,VWS V14.01,2013-05-25 10:55:00,
2013-05-25 07:00:00,46.4,38.2,29.88,West,275,5.4,5.4,73,0.04,,---,0.12,VWS V14.01,2013-05-25 11:00:00,
2013-05-25 07:05:00,46.6,38.4,29.88,WNW,283,2.2,2.2,73,0.00,,---,0.12,VWS V14.01,2013-05-25 11:05:00,
2013-05-25 07:10:00,46.8,38.6,29.88,WNW,300,3.6,3.6,73,0.00,,---,0.12,VWS V14.01,2013-05-25 11:10:00,
2013-05-25 07:15:00,46.8,38.6,29.88,WNW,290,8.7,8.7,73,0.00,,---,0.12,VWS V14.01,2013-05-25 11:15:00,
2013-05-25 07:20:00,46.8,38.6,29.88,WSW,237,8.3,8.3,73,0.00,,---,0.12,VWS V14.01,2013-05-25 11:20:00,
2013-05-25 07:25:00,46.9,38.8,29.88,WSW,246,8.1,8.1,73,0.00,,---,0.12,VWS V14.01,2013-05-25 11:25:00,
2013-05-25 07:30:00,46.9,38.8,29.88,West,277,4.9,4.9,73,0.00,,---,0.12,VWS V14.01,2013-05-25 11:30:00,
2013-05-25 07:35:00,47.1,38.9,29.88,West,271,8.3,8.3,73,0.00,,---,0.12,VWS V14.01,2013-05-25 11:35:00,
2013-05-25 07:40:00,47.3,39.1,29.88,West,259,5.4,5.4,73,0.00,,---,0.12,VWS V14.01,2013-05-25 11:40:00,
2013-05-25 07:45:00,47.5,39.3,29.88,West,262,4.0,4.0,73,0.00,,---,0.12,VWS V14.01,2013-05-25 11:45:00,
2013-05-25 07:50:00,47.5,39.3,29.88,WNW,299,6.3,6.3,73,0.00,,---,0.12,VWS V14.01,2013-05-25 11:50:00,
2013-05-25 07:55:00,47.7,39.4,29.88,WNW,300,5.8,5.8,73,0.00,,---,0.12,VWS V14.01,2013-05-25 11:55:00,
2013-05-25 08:00:00,48.0,39.8,29.88,West,260,4.9,4.9,73,0.00,,---,0.12,VWS V14.01,2013-05-25 12:00:00,
2013-05-25 08:05:00,48.2,40.0,29.88,North,353,8.1,8.1,73,0.00,,---,0.12,VWS V14.01,2013-05-25 12:05:00,
2013-05-25 08:10:00,48.6,40.3,29.88,NW,305,3.6,3.6,73,0.00,,---,0.12,VWS V14.01,2013-05-25 12:10:00,
2013-05-25 08:15:00,48.7,40.5,29.88,West,277,2.2,2.2,73,0.04,,---,0.16,VWS V14.01,2013-05-25 12:15:00,
2013-05-25 08:20:00,48.9,40.7,29.88,SW,233,5.8,5.8,73,0.04,,---,0.16,VWS V14.01,2013-05-25 12:20:00,
2013-05-25 08:25:00,49.3,41.0,29.88,WSW,257,5.8,5.8,73,0.04,,---,0.16,VWS V14.01,2013-05-25 12:25:00,
2013-05-25 08:30:00,49.3,40.7,29.88,WSW,247,4.0,4.0,72,0.04,,---,0.16,VWS V14.01,2013-05-25 12:30:00,
2013-05-25 08:35:00,49.3,40.3,29.88,WNW,288,3.6,3.6,71,0.04,,---,0.16,VWS V14.01,2013-05-25 12:35:00,
2013-05-25 08:40:00,49.5,40.5,29.88,West,280,6.3,6.3,71,0.04,,---,0.16,VWS V14.01,2013-05-25 12:40:00,
2013-05-25 08:45:00,49.5,40.1,29.88,West,262,10.5,10.5,70,0.04,,---,0.00,VWS V14.01,2013-05-25 12:45:00,
2013-05-25 08:50:00,49.6,39.9,29.88,WSW,257,4.0,4.0,69,0.04,,---,0.16,VWS V14.01,2013-05-25 12:50:00,
2013-05-25 08:56:00,49.8,39.7,29.88,WNW,287,8.7,8.7,68,0.04,,---,0.16,VWS V14.01,2013-05-25 12:56:00,
2013-05-25 09:01:00,49.8,39.7,29.88,WNW,287,8.7,8.7,68,0.04,,---,0.16,VWS V14.01,2013-05-25 13:01:00,
2013-05-25 09:06:00,49.8,38.2,29.88,WSW,257,6.3,6.3,64,0.04,,---,0.16,VWS V14.01,2013-05-25 13:06:00,
2013-05-25 09:11:00,50.0,37.9,29.88,WNW,286,13.2,13.2,63,0.04,,---,0.16,VWS V14.01,2013-05-25 13:11:00,
2013-05-25 09:16:00,50.4,37.4,29.88,West,276,4.9,4.9,61,0.00,,---,0.16,VWS V14.01,2013-05-25 13:16:00,
2013-05-25 09:21:00,51.1,38.1,29.88,WSW,255,2.7,2.7,61,0.00,,---,0.16,VWS V14.01,2013-05-25 13:21:00,
2013-05-25 09:26:00,51.6,38.6,29.88,WNW,298,2.7,2.7,61,0.00,,---,0.16,VWS V14.01,2013-05-25 13:26:00,
2013-05-25 09:31:00,52.0,38.1,29.88,West,270,5.4,5.4,59,0.00,,---,0.16,VWS V14.01,2013-05-25 13:31:00,
2013-05-25 09:36:00,52.3,37.1,29.88,West,281,13.2,13.2,56,0.00,,---,0.16,VWS V14.01,2013-05-25 13:36:00,
2013-05-25 09:41:00,52.7,36.5,29.88,WNW,294,5.8,5.8,54,0.00,,---,0.16,VWS V14.01,2013-05-25 13:41:00,
2013-05-25 09:46:00,53.1,35.9,29.88,WSW,255,8.3,8.3,52,0.00,,---,0.16,VWS V14.01,2013-05-25 13:46:00,
2013-05-25 09:51:00,53.4,33.7,29.88,WNW,295,11.9,11.9,47,0.00,,---,0.16,VWS V14.01,2013-05-25 13:51:00,
2013-05-25 09:56:00,53.4,33.2,29.88,North,357,12.3,12.3,46,0.00,,---,0.16,VWS V14.01,2013-05-25 13:56:00,
2013-05-25 10:01:00,53.4,32.1,29.88,NNE,21,8.7,8.7,44,0.00,,---,0.16,VWS V14.01,2013-05-25 14:01:00,
2013-05-25 10:06:00,53.4,31.5,29.88,WSW,258,2.7,2.7,43,0.00,,---,0.16,VWS V14.01,2013-05-25 14:06:00,
2013-05-25 10:11:00,53.4,32.6,29.88,South,187,5.8,5.8,45,0.00,,---,0.16,VWS V14.01,2013-05-25 14:11:00,
2013-05-25 10:16:00,53.4,32.1,29.88,NNW,327,4.0,4.0,44,0.00,,---,0.16,VWS V14.01,2013-05-25 14:16:00,
2013-05-25 10:21:00,54.1,31.6,29.88,WNW,294,3.6,3.6,42,0.00,,---,0.16,VWS V14.01,2013-05-25 14:21:00,
2013-05-25 10:26:00,54.5,30.1,29.88,WNW,294,3.6,3.6,39,0.00,,---,0.16,VWS V14.01,2013-05-25 14:26:00,
2013-05-25 10:31:00,54.9,29.8,29.88,WNW,301,5.8,5.8,38,0.00,,---,0.16,VWS V14.01,2013-05-25 14:31:00,
2013-05-25 10:36:00,54.9,28.4,29.88,NNW,327,12.8,12.8,36,0.00,,---,0.16,VWS V14.01,2013-05-25 14:36:00,
2013-05-25 10:41:00,54.9,28.4,29.88,West,266,10.1,10.1,36,0.00,,---,0.16,VWS V14.01,2013-05-25 14:41:00,
2013-05-25 10:46:00,55.0,28.6,29.88,NW,310,4.9,4.9,36,0.00,,---,0.16,VWS V14.01,2013-05-25 14:46:00,
2013-05-25 10:51:00,55.4,28.9,29.88,West,279,7.6,7.6,36,0.00,,---,0.16,VWS V14.01,2013-05-25 14:51:00,
2013-05-25 10:57:00,55.4,28.9,29.88,West,263,4.9,4.9,36,0.00,,---,0.16,VWS V14.01,2013-05-25 14:57:00,
2013-05-25 11:02:00,55.2,28.1,29.88,SW,234,6.3,6.3,35,0.00,,---,0.16,VWS V14.01,2013-05-25 15:02:00,
2013-05-25 11:07:00,54.9,27.0,29.88,NNW,329,8.3,8.3,34,0.00,,---,0.16,VWS V14.01,2013-05-25 15:07:00,
2013-05-25 11:12:00,54.5,26.0,29.88,West,281,8.1,8.1,33,0.00,,---,0.16,VWS V14.01,2013-05-25 15:12:00,
2013-05-25 11:17:00,54.7,27.6,29.88,WNW,301,8.1,8.1,35,0.00,,---,0.16,VWS V14.01,2013-05-25 15:17:00,
2013-05-25 11:22:00,55.2,25.1,29.88,West,277,8.1,8.1,31,0.00,,---,0.16,VWS V14.01,2013-05-25 15:22:00,
2013-05-25 11:27:00,55.6,24.7,29.88,NW,325,13.2,13.2,30,0.00,,---,0.16,VWS V14.01,2013-05-25 15:27:00,
2013-05-25 11:32:00,56.1,25.1,29.88,West,275,5.4,5.4,30,0.00,,---,0.16,VWS V14.01,2013-05-25 15:32:00,
2013-05-25 11:37:00,56.3,24.5,29.88,NW,315,8.3,8.3,29,0.00,,---,0.16,VWS V14.01,2013-05-25 15:37:00,
2013-05-25 11:42:00,57.0,23.4,29.88,SW,215,7.2,7.2,27,0.00,,---,0.16,VWS V14.01,2013-05-25 15:42:00,
2013-05-25 11:47:00,57.4,23.7,29.88,WSW,256,5.4,5.4,27,0.00,,---,0.16,VWS V14.01,2013-05-25 15:47:00,
2013-05-25 11:52:00,58.1,22.5,29.88,SW,236,7.6,7.6,25,0.00,,---,0.16,VWS V14.01,2013-05-25 15:52:00,
2013-05-25 11:57:00,58.5,22.8,29.88,WSW,243,10.5,10.5,25,0.00,,---,0.16,VWS V14.01,2013-05-25 15:57:00,
2013-05-25 12:02:00,58.5,22.8,29.88,NW,316,19.2,19.2,25,0.00,,---,0.16,VWS V14.01,2013-05-25 16:02:00,
2013-05-25 12:07:00,59.2,22.4,29.88,West,280,6.3,6.3,24,0.00,,---,0.16,VWS V14.01,2013-05-25 16:07:00,
2013-05-25 12:12:00,59.4,20.5,29.88,West,268,5.8,5.8,22,0.00,,---,0.16,VWS V14.01,2013-05-25 16:12:00,
2013-05-25 12:17:00,59.2,20.4,29.88,North,0,5.4,5.4,22,0.00,,---,0.16,VWS V14.01,2013-05-25 16:17:00,
2013-05-25 12:22:00,58.5,21.8,29.88,WSW,254,12.3,12.3,24,0.00,,---,0.16,VWS V14.01,2013-05-25 16:22:00,
2013-05-25 12:27:00,57.4,21.9,29.88,WNW,289,10.1,10.1,25,0.00,,---,0.16,VWS V14.01,2013-05-25 16:27:00,
2013-05-25 12:32:00,57.9,23.3,29.88,NW,326,11.0,11.0,26,0.00,,---,0.16,VWS V14.01,2013-05-25 16:32:00,
2013-05-25 12:37:00,58.3,22.6,29.88,WNW,297,15.0,15.0,25,0.00,,---,0.16,VWS V14.01,2013-05-25 16:37:00,
2013-05-25 12:42:00,58.3,22.6,29.88,NNW,340,8.1,8.1,25,0.00,,---,0.16,VWS V14.01,2013-05-25 16:42:00,
2013-05-25 12:47:00,59.0,20.2,29.88,NW,304,5.8,5.8,22,0.00,,---,0.16,VWS V14.01,2013-05-25 16:47:00,
2013-05-25 12:52:00,59.2,17.0,29.88,West,262,14.5,14.5,19,0.00,,---,0.16,VWS V14.01,2013-05-25 16:52:00,
2013-05-25 12:57:00,59.5,17.3,29.88,West,274,16.8,16.8,19,0.00,,---,0.16,VWS V14.01,2013-05-25 16:57:00,
2013-05-25 13:03:00,59.4,17.1,29.88,West,280,11.0,11.0,19,0.00,,---,0.16,VWS V14.01,2013-05-25 17:03:00,
2013-05-25 13:08:00,59.0,16.8,29.88,NE,37,6.3,6.3,19,0.00,,---,0.16,VWS V14.01,2013-05-25 17:08:00,
2013-05-25 13:13:00,58.6,19.9,29.88,North,0,12.8,12.8,22,0.00,,---,0.16,VWS V14.01,2013-05-25 17:13:00,
2013-05-25 13:18:00,58.5,19.8,29.88,NW,324,5.4,5.4,22,0.00,,---,0.16,VWS V14.01,2013-05-25 17:18:00,
2013-05-25 13:23:00,57.9,22.3,29.88,WNW,286,13.6,13.6,25,0.00,,---,0.16,VWS V14.01,2013-05-25 17:23:00,
2013-05-25 13:28:00,57.9,22.3,29.88,SSE,166,8.3,8.3,25,0.00,,---,0.16,VWS V14.01,2013-05-25 17:28:00,
2013-05-25 13:33:00,57.9,21.4,29.88,NNW,333,10.5,10.5,24,0.00,,---,0.16,VWS V14.01,2013-05-25 17:33:00,
2013-05-25 13:38:00,57.9,21.4,29.88,NE,36,11.0,11.0,24,0.00,,---,0.16,VWS V14.01,2013-05-25 17:38:00,
2013-05-25 13:43:00,57.7,21.2,29.88,West,262,20.1,20.1,24,0.00,,---,0.16,VWS V14.01,2013-05-25 17:43:00,
2013-05-25 13:48:00,57.4,18.9,29.88,SSE,162,3.6,3.6,22,0.00,,---,0.16,VWS V14.01,2013-05-25 17:48:00,
2013-05-25 13:53:00,57.0,18.6,29.88,NNW,332,8.1,8.1,22,0.00,,---,0.16,VWS V14.01,2013-05-25 17:53:00,
2013-05-25 13:58:00,56.8,21.4,29.88,WNW,293,9.6,9.6,25,0.00,,---,0.16,VWS V14.01,2013-05-25 17:58:00,
2013-05-25 14:03:00,56.5,21.1,29.88,NW,318,8.1,8.1,25,0.00,,---,0.16,VWS V14.01,2013-05-25 18:03:00,
2013-05-25 14:08:00,55.9,20.6,29.88,WNW,284,12.3,12.3,25,0.00,,---,0.16,VWS V14.01,2013-05-25 18:08:00,
2013-05-25 14:13:00,55.8,22.3,29.88,WNW,291,21.0,21.0,27,0.00,,---,0.16,VWS V14.01,2013-05-25 18:13:00,
2013-05-25 14:18:00,55.6,21.3,29.88,NNW,333,12.8,12.8,26,0.00,,---,0.16,VWS V14.01,2013-05-25 18:18:00,
2013-05-25 14:23:00,55.8,22.3,29.88,NW,317,5.8,5.8,27,0.00,,---,0.16,VWS V14.01,2013-05-25 18:23:00,
2013-05-25 14:28:00,55.9,21.6,29.88,WNW,294,17.9,17.9,26,0.00,,---,0.16,VWS V14.01,2013-05-25 18:28:00,
2013-05-25 14:33:00,56.3,21.0,29.88,SW,224,8.1,8.1,25,0.00,,---,0.16,VWS V14.01,2013-05-25 18:33:00,
2013-05-25 14:38:00,56.7,21.3,29.88,WNW,294,15.0,15.0,25,0.00,,---,0.16,VWS V14.01,2013-05-25 18:38:00,
2013-05-25 14:43:00,57.4,18.9,29.88,WNW,294,15.0,15.0,22,0.00,,---,0.16,VWS V14.01,2013-05-25 18:43:00,
2013-05-25 14:49:00,58.3,19.6,29.88,WNW,301,16.8,16.8,22,0.00,,---,0.16,VWS V14.01,2013-05-25 18:49:00,
2013-05-25 14:54:00,58.5,16.4,29.88,West,262,4.0,4.0,19,0.00,,---,0.16,VWS V14.01,2013-05-25 18:54:00,
2013-05-25 14:59:00,58.8,16.7,29.88,West,261,8.7,8.7,19,0.00,,---,0.16,VWS V14.01,2013-05-25 18:59:00,
2013-05-25 15:04:00,59.0,14.3,29.88,NW,326,4.0,4.0,17,0.00,,---,0.16,VWS V14.01,2013-05-25 19:04:00,
2013-05-25 15:09:00,59.5,14.7,29.88,West,262,17.4,17.4,17,0.00,,---,0.16,VWS V14.01,2013-05-25 19:09:00,
2013-05-25 15:14:00,60.3,15.3,29.88,West,260,8.3,8.3,17,0.00,,---,0.16,VWS V14.01,2013-05-25 19:14:00,
2013-05-25 15:19:00,60.8,14.4,29.88,South,172,5.8,5.8,16,0.00,,---,0.16,VWS V14.01,2013-05-25 19:19:00,
2013-05-25 15:24:00,61.3,11.8,29.88,WNW,294,15.4,15.4,14,0.00,,---,0.16,VWS V14.01,2013-05-25 19:24:00,
2013-05-25 15:36:00,60.6,11.2,29.88,NW,305,14.5,14.5,14,0.00,,---,0.16,VWS V14.01,2013-05-25 19:36:00,
2013-05-25 15:42:00,59.7,10.5,29.88,NW,311,8.1,8.1,14,0.00,,---,0.16,VWS V14.01,2013-05-25 19:42:00,
2013-05-25 15:47:00,59.2,14.4,29.88,WSW,245,3.6,3.6,17,0.00,,---,0.16,VWS V14.01,2013-05-25 19:47:00,
2013-05-25 15:52:00,59.2,14.4,29.88,West,269,13.2,13.2,17,0.00,,---,0.16,VWS V14.01,2013-05-25 19:52:00,
2013-05-25 15:57:00,59.7,10.5,29.88,North,353,5.8,5.8,14,0.00,,---,0.16,VWS V14.01,2013-05-25 19:57:00,
2013-05-25 16:02:00,60.6,11.2,29.88,West,274,10.1,10.1,14,0.00,,---,0.16,VWS V14.01,2013-05-25 20:02:00,
2013-05-25 16:07:00,61.2,11.6,29.88,NW,311,4.9,4.9,14,0.00,,---,0.16,VWS V14.01,2013-05-25 20:07:00,
2013-05-25 16:12:00,60.8,11.3,29.88,WNW,303,15.0,15.0,14,0.00,,---,0.16,VWS V14.01,2013-05-25 20:12:00,
2013-05-25 16:17:00,60.1,7.3,29.88,WNW,284,10.1,10.1,12,0.00,,---,0.16,VWS V14.01,2013-05-25 20:17:00,
2013-05-25 16:22:00,59.9,10.6,29.88,SW,229,8.3,8.3,14,0.00,,---,0.16,VWS V14.01,2013-05-25 20:22:00,
2013-05-25 16:27:00,60.1,10.8,29.88,West,275,8.7,8.7,14,0.00,,---,0.16,VWS V14.01,2013-05-25 20:27:00,
2013-05-25 16:32:00,59.9,10.6,29.88,NNW,340,5.8,5.8,14,0.00,,---,0.16,VWS V14.01,2013-05-25 20:32:00,
2013-05-25 16:37:00,59.2,10.0,29.88,SW,229,17.4,17.4,14,0.00,,---,0.16,VWS V14.01,2013-05-25 20:37:00,
2013-05-25 16:42:00,58.5,9.5,29.88,WNW,299,6.3,6.3,14,0.00,,---,0.16,VWS V14.01,2013-05-25 20:42:00,
2013-05-25 16:47:00,59.0,9.9,29.88,West,273,8.1,8.1,14,0.00,,---,0.16,VWS V14.01,2013-05-25 20:47:00,
2013-05-25 16:52:00,59.5,10.3,29.88,West,268,5.8,5.8,14,0.00,,---,0.16,VWS V14.01,2013-05-25 20:52:00,
2013-05-25 16:57:00,59.5,10.3,29.88,West,276,5.8,5.8,14,0.00,,---,0.16,VWS V14.01,2013-05-25 20:57:00,
2013-05-25 17:02:00,59.2,10.0,29.88,WSW,256,6.3,6.3,14,0.00,,---,0.16,VWS V14.01,2013-05-25 21:02:00,
2013-05-25 17:07:00,59.2,10.0,29.88,West,267,3.6,3.6,14,0.00,,---,0.16,VWS V14.01,2013-05-25 21:07:00,
2013-05-25 17:12:00,59.2,10.0,29.88,NNW,330,8.1,8.1,14,0.00,,---,0.16,VWS V14.01,2013-05-25 21:12:00,
2013-05-25 17:17:00,59.2,10.0,29.88,WSW,243,10.1,10.1,14,0.00,,---,0.16,VWS V14.01,2013-05-25 21:17:00,
2013-05-25 17:22:00,59.2,10.0,29.88,NNW,342,8.3,8.3,14,0.00,,---,0.16,VWS V14.01,2013-05-25 21:22:00,
2013-05-25 17:27:00,59.7,7.0,29.88,West,280,10.1,10.1,12,0.00,,---,0.16,VWS V14.01,2013-05-25 21:27:00,
2013-05-25 17:32:00,60.1,7.3,29.88,NNW,327,11.0,11.0,12,0.00,,---,0.16,VWS V14.01,2013-05-25 21:32:00,
2013-05-25 17:37:00,59.9,7.2,29.88,SW,216,8.1,8.1,12,0.00,,---,0.16,VWS V14.01,2013-05-25 21:37:00,
2013-05-25 17:42:00,59.4,10.2,29.88,West,272,11.0,11.0,14,0.00,,---,0.16,VWS V14.01,2013-05-25 21:42:00,
2013-05-25 17:48:00,58.8,9.8,29.88,NW,316,5.4,5.4,14,0.00,,---,0.16,VWS V14.01,2013-05-25 21:48:00,
2013-05-25 17:53:00,57.7,15.8,29.88,NNW,337,3.6,3.6,19,0.00,,---,0.16,VWS V14.01,2013-05-25 21:53:00,
2013-05-25 17:58:00,56.8,21.4,29.91,WNW,298,8.7,8.7,25,0.00,,---,0.16,VWS V14.01,2013-05-25 21:58:00,
2013-05-25 18:03:00,56.5,15.9,29.91,WNW,282,7.2,7.2,20,0.00,,---,0.16,VWS V14.01,2013-05-25 22:03:00,
2013-05-25 18:08:00,56.1,20.8,29.91,NNW,344,3.6,3.6,25,0.00,,---,0.16,VWS V14.01,2013-05-25 22:08:00,
2013-05-25 18:13:00,55.9,17.7,29.91,NW,308,4.9,4.9,22,0.00,,---,0.16,VWS V14.01,2013-05-25 22:13:00,
2013-05-25 18:18:00,55.8,17.5,29.91,West,271,6.3,6.3,22,0.00,,---,0.16,VWS V14.01,2013-05-25 22:18:00,
2013-05-25 18:23:00,55.4,17.2,29.91,WSW,244,5.8,5.8,22,0.00,,---,0.16,VWS V14.01,2013-05-25 22:23:00,
2013-05-25 18:28:00,55.2,14.9,29.91,West,262,2.7,2.7,20,0.00,,---,0.16,VWS V14.01,2013-05-25 22:28:00,
2013-05-25 18:33:00,55.4,15.0,29.91,WSW,237,2.7,2.7,20,0.00,,---,0.16,VWS V14.01,2013-05-25 22:33:00,
2013-05-25 18:38:00,55.6,11.5,29.91,WNW,300,6.3,6.3,17,0.00,,---,0.16,VWS V14.01,2013-05-25 22:38:00,
2013-05-25 18:43:00,55.6,11.5,29.91,NE,46,5.4,5.4,17,0.00,,---,0.16,VWS V14.01,2013-05-25 22:43:00,
2013-05-25 18:48:00,55.6,8.7,29.91,NW,305,13.6,13.6,15,0.00,,---,0.16,VWS V14.01,2013-05-25 22:48:00,
2013-05-25 18:54:00,55.6,8.7,29.91,North,353,3.1,3.1,15,0.00,,---,0.16,VWS V14.01,2013-05-25 22:54:00,
2013-05-25 18:59:00,55.6,11.5,29.91,South,176,4.0,4.0,17,0.00,,---,0.16,VWS V14.01,2013-05-25 22:59:00,
2013-05-25 19:04:00,55.4,11.3,29.91,West,267,8.3,8.3,17,0.00,,---,0.16,VWS V14.01,2013-05-25 23:04:00,
2013-05-25 19:09:00,55.6,8.7,29.91,North,8,7.2,7.2,15,0.00,,---,0.16,VWS V14.01,2013-05-25 23:09:00,
2013-05-25 19:14:00,55.6,8.7,29.94,SW,226,7.6,7.6,15,0.00,,---,0.16,VWS V14.01,2013-05-25 23:14:00,
2013-05-25 19:19:00,55.6,8.7,29.94,NW,323,8.3,8.3,15,0.00,,---,0.16,VWS V14.01,2013-05-25 23:19:00,
2013-05-25 19:24:00,55.4,8.5,29.94,NNW,334,4.0,4.0,15,0.00,,---,0.16,VWS V14.01,2013-05-25 23:24:00,
2013-05-25 19:29:00,55.4,8.5,29.94,WSW,251,6.3,6.3,15,0.00,,---,0.16,VWS V14.01,2013-05-25 23:29:00,
2013-05-25 19:34:00,55.4,8.5,29.94,NNW,334,0.0,0.0,15,0.00,,---,0.16,VWS V14.01,2013-05-25 23:34:00,
2013-05-25 19:39:00,55.4,8.5,29.94,NNW,335,5.8,5.8,15,0.00,,---,0.16,VWS V14.01,2013-05-25 23:39:00,
2013-05-25 19:44:00,55.2,8.4,29.94,ENE,77,6.3,6.3,15,0.00,,---,0.16,VWS V14.01,2013-05-25 23:44:00,
2013-05-25 19:49:00,55.2,8.4,29.94,WSW,241,4.9,4.9,15,0.00,,---,0.16,VWS V14.01,2013-05-25 23:49:00,
2013-05-25 19:54:00,55.0,8.2,29.94,NNW,333,5.8,5.8,15,0.00,,---,0.16,VWS V14.01,2013-05-25 23:54:00,
2013-05-25 19:59:00,55.0,8.2,29.97,NW,317,8.3,8.3,15,0.00,,---,0.16,VWS V14.01,2013-05-25 23:59:00,
2013-05-25 20:04:00,55.0,8.2,29.97,NNE,12,10.5,10.5,15,0.00,,---,0.16,VWS V14.01,2013-05-26 00:04:00,
2013-05-25 20:09:00,54.9,12.2,29.97,NNW,344,5.4,5.4,18,0.00,,---,0.16,VWS V14.01,2013-05-26 00:09:00,
2013-05-25 20:14:00,54.3,11.7,29.97,NNW,333,8.7,8.7,18,0.00,,---,0.16,VWS V14.01,2013-05-26 00:14:00,
2013-05-25 20:19:00,54.0,11.4,29.97,NW,318,5.4,5.4,18,0.00,,---,0.16,VWS V14.01,2013-05-26 00:19:00,
2013-05-25 20:24:00,53.6,11.1,29.97,West,268,3.6,3.6,18,0.00,,---,0.16,VWS V14.01,2013-05-26 00:24:00,
2013-05-25 20:29:00,53.2,14.3,29.97,NNE,15,3.6,3.6,21,0.00,,---,0.16,VWS V14.01,2013-05-26 00:29:00,
2013-05-25 20:34:00,53.1,14.2,29.97,NW,317,4.0,4.0,21,0.00,,---,0.16,VWS V14.01,2013-05-26 00:34:00,
2013-05-25 20:39:00,53.1,14.2,29.97,WNW,293,0.0,0.0,21,0.00,,---,0.16,VWS V14.01,2013-05-26 00:39:00,
2013-05-25 20:44:00,53.1,14.2,29.97,West,277,4.0,4.0,21,0.00,,---,0.16,VWS V14.01,2013-05-26 00:44:00,
2013-05-25 20:49:00,53.1,10.7,29.97,WNW,296,2.7,2.7,18,0.00,,---,0.16,VWS V14.01,2013-05-26 00:49:00,
2013-05-25 20:54:00,53.2,10.9,29.97,South,191,0.0,0.0,18,0.00,,---,0.16,VWS V14.01,2013-05-26 00:54:00,
2013-05-25 20:59:00,53.2,10.9,29.97,NNW,340,3.1,3.1,18,0.00,,---,0.16,VWS V14.01,2013-05-26 00:59:00,
2013-05-25 21:04:00,53.4,11.0,29.97,West,261,3.6,3.6,18,0.00,,---,0.16,VWS V14.01,2013-05-26 01:04:00,
2013-05-25 21:09:00,53.4,11.0,29.97,NW,326,3.1,3.1,18,0.00,,---,0.16,VWS V14.01,2013-05-26 01:09:00,
2013-05-25 21:14:00,53.6,11.1,29.97,WSW,240,13.2,13.2,18,0.00,,---,0.16,VWS V14.01,2013-05-26 01:14:00,
2013-05-25 21:20:00,53.6,7.1,29.97,WSW,238,2.7,2.7,15,0.00,,---,0.16,VWS V14.01,2013-05-26 01:20:00,
2013-05-25 21:25:00,53.6,7.1,29.97,WSW,250,3.6,3.6,15,0.00,,---,0.16,VWS V14.01,2013-05-26 01:25:00,
2013-05-25 21:30:00,53.6,11.1,29.97,NNW,327,6.3,6.3,18,0.00,,---,0.16,VWS V14.01,2013-05-26 01:30:00,
2013-05-25 21:35:00,53.6,7.1,29.97,West,280,3.6,3.6,15,0.00,,---,0.16,VWS V14.01,2013-05-26 01:35:00,
2013-05-25 21:40:00,53.6,7.1,29.97,WSW,239,5.4,5.4,15,0.00,,---,0.16,VWS V14.01,2013-05-26 01:40:00,
2013-05-25 21:45:00,53.6,7.1,29.97,West,265,5.8,5.8,15,0.00,,---,0.16,VWS V14.01,2013-05-26 01:45:00,
2013-05-25 21:50:00,53.4,8.4,29.97,WSW,244,3.6,3.6,16,0.00,,---,0.16,VWS V14.01,2013-05-26 01:50:00,
2013-05-25 21:55:00,53.2,8.2,29.97,West,280,3.1,3.1,16,0.00,,---,0.16,VWS V14.01,2013-05-26 01:55:00,
2013-05-25 22:00:00,53.2,8.2,29.97,West,275,3.6,3.6,16,0.00,,---,0.16,VWS V14.01,2013-05-26 02:00:00,
2013-05-25 22:05:00,53.1,8.1,29.97,WNW,295,4.0,4.0,16,0.00,,---,0.16,VWS V14.01,2013-05-26 02:05:00,
2013-05-25 22:10:00,53.1,8.1,29.97,West,264,6.3,6.3,16,0.00,,---,0.16,VWS V14.01,2013-05-26 02:10:00,
2013-05-25 22:15:00,52.9,7.9,29.97,West,274,3.1,3.1,16,0.00,,---,0.16,VWS V14.01,2013-05-26 02:15:00,
2013-05-25 22:20:00,52.5,10.2,29.97,WNW,291,5.8,5.8,18,0.00,,---,0.16,VWS V14.01,2013-05-26 02:20:00,
2013-05-25 22:25:00,52.3,10.1,29.97,WNW,291,2.7,2.7,18,0.00,,---,0.16,VWS V14.01,2013-05-26 02:25:00,
2013-05-25 22:30:00,52.2,10.0,29.97,West,260,2.7,2.7,18,0.00,,---,0.16,VWS V14.01,2013-05-26 02:30:00,
2013-05-25 22:35:00,51.8,9.7,29.97,West,272,2.7,2.7,18,0.00,,---,0.16,VWS V14.01,2013-05-26 02:35:00,
2013-05-25 22:40:00,51.8,9.7,29.97,WNW,284,4.0,4.0,18,0.00,,---,0.16,VWS V14.01,2013-05-26 02:40:00,
2013-05-25 22:45:00,51.6,10.7,29.97,NNW,342,5.4,5.4,19,0.00,,---,0.16,VWS V14.01,2013-05-26 02:45:00,
2013-05-25 22:50:00,51.4,10.6,29.97,West,271,2.2,2.2,19,0.00,,---,0.16,VWS V14.01,2013-05-26 02:50:00,
2013-05-25 22:55:00,51.3,10.4,29.97,WSW,258,0.0,0.0,19,0.00,,---,0.16,VWS V14.01,2013-05-26 02:55:00,
2013-05-25 23:00:00,51.3,10.4,29.97,NW,311,0.0,0.0,19,0.00,,---,0.16,VWS V14.01,2013-05-26 03:00:00,
2013-05-25 23:05:00,51.1,10.3,29.97,WNW,289,3.1,3.1,19,0.00,,---,0.16,VWS V14.01,2013-05-26 03:05:00,
2013-05-25 23:10:00,50.9,10.1,29.97,SW,236,2.7,2.7,19,0.00,,---,0.16,VWS V14.01,2013-05-26 03:10:00,
2013-05-25 23:15:00,50.9,10.1,29.97,West,274,3.6,3.6,19,0.00,,---,0.16,VWS V14.01,2013-05-26 03:15:00,
2013-05-25 23:20:00,50.7,10.0,29.97,WSW,247,2.7,2.7,19,0.00,,---,0.16,VWS V14.01,2013-05-26 03:20:00,
2013-05-25 23:25:00,50.5,9.8,29.97,SW,236,3.6,3.6,19,0.00,,---,0.16,VWS V14.01,2013-05-26 03:25:00,
2013-05-25 23:30:00,50.5,9.8,29.97,SW,232,4.0,4.0,19,0.00,,---,0.16,VWS V14.01,2013-05-26 03:30:00,
2013-05-25 23:36:00,50.4,9.7,29.97,WSW,241,3.6,3.6,19,0.00,,---,0.16,VWS V14.01,2013-05-26 03:36:00,
2013-05-25 23:41:00,50.2,11.8,29.97,West,259,2.2,2.2,21,0.00,,---,0.16,VWS V14.01,2013-05-26 03:41:00,
2013-05-25 23:46:00,50.0,11.6,29.97,SW,218,2.7,2.7,21,0.00,,---,0.16,VWS V14.01,2013-05-26 03:46:00,
2013-05-25 23:51:00,49.6,11.3,29.97,WSW,247,3.6,3.6,21,0.00,,---,0.16,VWS V14.01,2013-05-26 03:51:00,
2013-05-25 23:56:00,49.6,11.3,29.97,SW,234,4.9,4.9,21,0.00,,---,0.16,VWS V14.01,2013-05-26 03:56:00,